Location: Newark
(33.6439°N, 114.9881°W)
Time: 11:54:30
(UTC+00:00)

OTV 5 (USA 277) - Visible Passes

Search period start: 19 June 2019 00:00
Search period end: 29 June 2019 00:00
Orbit: 310 x 325 km, 54.5° (Epoch: 08 May)

Date Brightness Start Highest point End Pass type
(mag) Time Alt. Az. Time Alt. Az. Time Alt. Az.
21 Jun ? 03:40:19 10° SSE 03:42:03 15° SE 03:43:49 10° E visible
21 Jun ? 05:14:01 10° W 05:16:14 21° NW 05:18:27 10° NNE visible
21 Jun ? 11:37:48 10° N 11:39:28 15° NE 11:41:06 10° ENE visible
22 Jun ? 03:53:57 10° SSW 03:56:38 55° SE 03:59:20 10° NE visible
22 Jun ? 11:51:43 10° NNW 11:54:20 40° NE 11:56:56 10° ESE visible
23 Jun ? 04:08:47 10° WSW 04:11:21 36° NW 04:13:57 10° NNE visible
24 Jun ? 04:24:45 10° WNW 04:26:15 14° NW 04:27:46 10° N visible
24 Jun ? 10:47:10 10° NNW 10:49:28 23° NE 10:51:45 10° E visible
25 Jun ? 11:01:31 10° NW 11:04:16 82° NE 11:06:59 10° SE visible
26 Jun ? 03:19:08 10° W 03:21:20 21° NW 03:23:33 10° NNE visible
26 Jun ? 09:42:52 10° N 09:43:57 14° NNE 09:43:57 14° NNE visible
